sat.trackr.live / text

‹ back to catalog

STARLINK-11234 [DTC]

NORAD 60400 · 2024-141C

PAYLOAD ACTIVE UNKNOWN

§ Identity

Operator
Country
US
Launch date
2024-08-10
Launch site
AFETR
Launch vehicle
Mass (kg)
RCS (m²)

Purposes: comms

External: N2YO · Heavens-Above · Gunter

§ Orbital elements

Epoch: 2026-09-21T01:51:20.905920Z

Period
91.74 min
Inclination
53.1611°
Eccentricity
0.0001425
Mean motion
15.69702868 rev/d
Perigee alt
358.8 km
Apogee alt
360.7 km
Semi-major
6,737.9 km
B*
9.0873e-6
RAAN
202.8592°
Arg perigee
60.2974°
Mean anomaly
299.8186°
Rev number
12,238

§ Raw data

STARLINK-11234 [DTC]1 60400U 24141C   26264.07732530  .00000512  00000+0  90873-5 0  99982 60400  53.1611 202.8592 0001425  60.2974 299.8186 15.69702868122388

JSON: /api/v1/satellites/60400 · /tle

For live sub-satellite position, see the globe view (requires WebGL).

§ Visibility from observer

Set your observer location to see the next 7 days of passes ≥ 10°. The values pass through the URL so the page stays shareable.

No JS? Fill the form by hand. The geolocation button needs JavaScript.